FW0864 Weather Reports


Display with metric or nautical units.
time (UTC)temp
F
wind
direction
speed
MPH
gust
MPH
rain 1hr
in
rain 24hr
in
rain mn
in
humidity
%
barometer
mb
20260901003535 86 330 2.0 8.0 0.00 0.00 0.00 33 1006.5
20260901003043 86 335 4.0 8.0 0.00 0.00 0.00 33 1006.5
20260901002535 86 276 4.0 8.0 0.00 0.00 0.00 34 1006.6
20260901002035 86 18 4.0 11.0 0.00 0.00 0.00 34 1006.5
20260901001541 86 305 4.0 11.0 0.00 0.00 0.00 34 1006.6
20260901001034 86 354 3.0 9.0 0.00 0.00 0.00 34 1006.6
20260901000534 86 343 4.0 9.0 0.00 0.00 0.00 33 1006.6
20260901000034 86 249 3.0 10.0 0.00 0.00 0.00 33 1006.6
20260831235533 86 319 4.0 12.0 0.00 0.00 0.00 34 1006.6
20260831235033 87 324 6.0 12.0 0.00 0.00 0.00 33 1006.7
20260831234539 87 277 4.0 9.0 0.00 0.00 0.00 33 1006.7
20260831234032 87 233 5.0 9.0 0.00 0.00 0.00 33 1006.8
20260831233535 87 301 4.0 10.0 0.00 0.00 0.00 33 1006.8
20260831233042 86 293 4.0 10.0 0.00 0.00 0.00 33 1006.8
20260831232530 87 272 5.0 11.0 0.00 0.00 0.00 33 1006.8
20260831232034 86 258 3.0 10.0 0.00 0.00 0.00 33 1006.8
20260831231530 86 288 5.0 14.0 0.00 0.00 0.00 34 1006.9
20260831231030 87 273 7.0 14.0 0.00 0.00 0.00 33 1006.9
20260831230530 87 261 5.0 11.0 0.00 0.00 0.00 32 1006.9
20260831230030 87 309 3.0 11.0 0.00 0.00 0.00 33 1007.0
20260831225530 87 243 6.0 12.0 0.00 0.00 0.00 32 1007.1
20260831225032 87 272 4.0 12.0 0.00 0.00 0.00 32 1007.0
20260831224529 87 291 5.0 10.0 0.00 0.00 0.00 32 1007.1
20260831224028 87 192 1.0 10.0 0.00 0.00 0.00 31 1007.1
20260831223528 87 343 4.0 9.0 0.00 0.00 0.00 31 1007.2
20260831223032 87 327 4.0 9.0 0.00 0.00 0.00 32 1007.2
20260831222527 86 280 2.0 9.0 0.00 0.00 0.00 32 1007.3
20260831222027 86 4 3.0 9.0 0.00 0.00 0.00 34 1007.4
20260831221528 87 336 5.0 9.0 0.00 0.00 0.00 32 1007.5
20260831221027 87 306 2.0 12.0 0.00 0.00 0.00 32 1007.5
20260831220527 86 287 5.0 12.0 0.00 0.00 0.00 32 1007.5
20260831220029 87 327 3.0 9.0 0.00 0.00 0.00 32 1007.6
20260831215527 87 316 1.0 9.0 0.00 0.00 0.00 33 1007.6
20260831215026 86 268 4.0 9.0 0.00 0.00 0.00 33 1007.6
20260831214524 86 262 4.0 9.0 0.00 0.00 0.00 33 1007.7
20260831214022 85 317 1.0 9.0 0.00 0.00 0.00 33 1007.8
20260831213523 85 304 5.0 11.0 0.00 0.00 0.00 34 1007.8
20260831213031 86 258 5.0 9.0 0.00 0.00 0.00 33 1007.8
20260831212530 85 312 2.0 7.0 0.00 0.00 0.00 34 1007.9
20260831212020 84 258 2.0 8.0 0.00 0.00 0.00 35 1008.0
20260831211518 84 322 3.0 8.0 0.00 0.00 0.00 36 1008.1
20260831211017 83 359 2.0 9.0 0.00 0.00 0.00 36 1008.2
20260831210518 84 335 3.0 9.0 0.00 0.00 0.00 35 1008.2
20260831210020 83 199 3.0 10.0 0.00 0.00 0.00 36 1008.2
20260831205517 83 285 6.0 10.0 0.00 0.00 0.00 36 1008.3
20260831205016 83 316 4.0 10.0 0.00 0.00 0.00 35 1008.3
20260831204515 82 200 4.0 9.0 0.00 0.00 0.00 37 1008.3
20260831204018 82 267 4.0 10.0 0.00 0.00 0.00 37 1008.3
20260831203513 82 231 6.0 10.0 0.00 0.00 0.00 38 1008.4
20260831203012 81 350 4.0 8.0 0.00 0.00 0.00 41 1008.4
20260831202513 81 313 2.0 9.0 0.00 0.00 0.00 40 1008.5
20260831202012 81 312 4.0 9.0 0.00 0.00 0.00 39 1008.5
20260831201512 82 334 3.0 8.0 0.00 0.00 0.00 41 1008.5
20260831201015 81 308 2.0 7.0 0.00 0.00 0.00 42 1008.6
20260831200510 81 260 1.0 8.0 0.00 0.00 0.00 43 1008.6
20260831200020 80 220 2.0 7.0 0.00 0.00 0.00 43 1008.7
20260831195508 79 220 2.0 10.0 0.00 0.00 0.00 45 1008.8
20260831195007 79 23 5.0 10.0 0.00 0.00 0.00 44 1008.9
20260831194510 78 229 2.0 8.0 0.00 0.00 0.00 42 1008.9
20260831194005 79 350 3.0 11.0 0.00 0.00 0.00 42 1009.0
20260831193507 78 276 5.0 11.0 0.00 0.00 0.00 42 1009.1
20260831193003 79 249 5.0 10.0 0.00 0.00 0.00 44 1009.2
20260831192502 78 256 3.0 9.0 0.00 0.00 0.00 46 1009.2
20260831192001 78 330 3.0 9.0 0.00 0.00 0.00 47 1009.2
20260831191501 78 241 3.0 9.0 0.00 0.00 0.00 46 1009.3
20260831191103 78 35 4.0 9.0 0.00 0.00 0.00 46 1009.3
20260831190600 77 265 3.0 11.0 0.00 0.00 0.00 47 1009.4
20260831190116 77 268 6.0 11.0 0.00 0.00 0.00 46 1009.3
20260831185558 77 271 5.0 10.0 0.00 0.00 0.00 47 1009.4
20260831185057 77 318 3.0 9.0 0.00 0.00 0.00 46 1009.3
20260831184621 76 234 5.0 11.0 0.00 0.00 0.00 49 1009.3
20260831184057 76 323 5.0 11.0 0.00 0.00 0.00 49 1009.4
20260831183553 75 233 6.0 10.0 0.00 0.00 0.00 50 1009.4
20260831183102 75 343 4.0 11.0 0.00 0.00 0.00 50 1009.4
20260831182552 75 257 4.0 9.0 0.00 0.00 0.00 50 1009.4
20260831182050 75 314 3.0 8.0 0.00 0.00 0.00 51 1009.4
20260831181550 74 335 3.0 9.0 0.00 0.00 0.00 52 1009.4
20260831181048 74 306 3.0 8.0 0.00 0.00 0.00 52 1009.5
20260831180548 74 268 5.0 8.0 0.00 0.00 0.00 51 1009.4
20260831180048 74 344 2.0 6.0 0.00 0.00 0.00 52 1009.4
20260831175549 74 17 2.0 8.0 0.00 0.00 0.00 54 1009.4
20260831175045 73 17 3.0 8.0 0.00 0.00 0.00 54 1009.4
20260831174549 72 359 1.0 8.0 0.00 0.00 0.00 57 1009.3
20260831174044 72 247 4.0 10.0 0.00 0.00 0.00 56 1009.4
20260831173541 71 330 5.0 10.0 0.00 0.00 0.00 56 1009.3
20260831173053 71 336 3.0 9.0 0.00 0.00 0.00 57 1009.3
20260831172541 71 318 4.0 9.0 0.00 0.00 0.00 57 1009.3
20260831172037 70 342 2.0 9.0 0.00 0.00 0.00 58 1009.3
20260831171536 70 284 4.0 11.0 0.00 0.00 0.00 59 1009.3
20260831171035 70 304 7.0 11.0 0.00 0.00 0.00 59 1009.3
20260831170534 69 296 4.0 8.0 0.00 0.00 0.00 61 1009.2
20260831170033 68 332 3.0 9.0 0.00 0.00 0.00 62 1009.2
20260831165534 68 312 3.0 9.0 0.00 0.00 0.00 61 1009.2
20260831165030 68 349 4.0 9.0 0.00 0.00 0.00 62 1009.1
20260831164532 67 349 2.0 9.0 0.00 0.00 0.00 63 1009.1
20260831164027 68 273 4.0 10.0 0.00 0.00 0.00 62 1009.1
20260831163525 67 341 2.0 10.0 0.00 0.00 0.00 64 1009.1
20260831163025 67 264 3.0 9.0 0.00 0.00 0.00 64 1009.1
20260831162524 67 337 4.0 10.0 0.00 0.00 0.00 64 1009.2
20260831162022 66 247 4.0 10.0 0.00 0.00 0.00 65 1009.2
20260831161521 66 319 3.0 11.0 0.00 0.00 0.00 65 1009.2
20260831161021 66 359 5.0 11.0 0.00 0.00 0.00 65 1009.2
20260831160518 65 249 4.0 9.0 0.00 0.00 0.00 66 1009.2
20260831160026 65 321 3.0 10.0 0.00 0.00 0.00 67 1009.0
20260831155515 65 329 5.0 10.0 0.00 0.00 0.00 67 1009.0
20260831155015 65 330 3.0 9.0 0.00 0.00 0.00 68 1009.0
20260831154517 64 333 3.0 8.0 0.00 0.00 0.00 69 1008.9
20260831154014 64 293 3.0 8.0 0.00 0.00 0.00 69 1008.9
20260831153513 64 299 3.0 6.0 0.00 0.00 0.00 69 1008.8
20260831153008 64 343 4.0 9.0 0.00 0.00 0.00 69 1008.8
20260831152508 64 286 4.0 10.0 0.00 0.00 0.00 69 1008.7
20260831152007 63 336 3.0 10.0 0.00 0.00 0.00 69 1008.7
20260831151507 63 280 4.0 8.0 0.00 0.00 0.00 70 1008.7
20260831151007 63 330 3.0 9.0 0.00 0.00 0.00 70 1008.6
20260831150507 63 232 4.0 9.0 0.00 0.00 0.00 71 1008.7
20260831150013 63 287 2.0 8.0 0.00 0.00 0.00 71 1008.5
20260831145506 62 312 3.0 7.0 0.00 0.00 0.00 71 1008.5
20260831145003 62 289 3.0 8.0 0.00 0.00 0.00 72 1008.5
20260831144502 62 303 3.0 8.0 0.00 0.00 0.00 72 1008.4
20260831144001 62 291 3.0 7.0 0.00 0.00 0.00 73 1008.3
20260831143559 61 264 2.0 7.0 0.00 0.00 0.00 73 1008.3
20260831143058 61 268 2.0 7.0 0.00 0.00 0.00 73 1008.2
20260831142557 61 311 2.0 4.0 0.00 0.00 0.00 73 1008.0
20260831142055 61 310 2.0 7.0 0.00 0.00 0.00 74 1008.0
20260831141554 61 268 3.0 5.0 0.00 0.00 0.00 74 1008.0
20260831141057 61 258 2.0 6.0 0.00 0.00 0.00 74 1008.0
20260831140556 61 275 2.0 6.0 0.00 0.00 0.00 73 1007.9
20260831140051 61 296 3.0 7.0 0.00 0.00 0.00 73 1007.8
20260831135550 61 268 4.0 7.0 0.00 0.00 0.00 73 1007.8
20260831135049 61 245 2.0 5.0 0.00 0.00 0.00 73 1007.7
20260831134556 61 251 2.0 5.0 0.00 0.00 0.00 73 1007.6
20260831134047 61 285 2.0 3.0 0.00 0.00 0.00 73 1007.5
20260831133546 61 264 2.0 3.0 0.00 0.00 0.00 73 1007.5
20260831133046 61 287 1.0 4.0 0.00 0.00 0.00 73 1007.4
20260831132546 61 261 2.0 4.0 0.00 0.00 0.00 73 1007.5
20260831132045 61 278 2.0 4.0 0.00 0.00 0.00 73 1007.5
20260831131544 61 274 2.0 4.0 0.00 0.00 0.00 72 1007.4
20260831131043 61 272 2.0 3.0 0.00 0.00 0.00 72 1007.3
20260831130543 62 293 1.0 2.0 0.00 0.00 0.00 72 1007.2
20260831130048 62 293 0.0 0.0 0.00 0.00 0.00 72 1007.1
20260831125548 62 293 0.0 0.0 0.00 0.00 0.00 72 1007.1
20260831125043 62 293 0.0 0.0 0.00 0.00 0.00 72 1007.0
20260831124545 62 293 0.0 0.0 0.00 0.00 0.00 72 1007.0
20260831124041 62 293 0.0 0.0 0.00 0.00 0.00 71 1007.0
20260831123543 62 293 0.0 0.0 0.00 0.00 0.00 71 1007.1
20260831123040 62 293 0.0 1.0 0.00 0.00 0.00 71 1007.1
20260831122540 62 293 0.0 1.0 0.00 0.00 0.00 71 1007.1
20260831122040 62 293 0.0 1.0 0.00 0.00 0.00 70 1007.2
20260831121539 63 293 0.0 2.0 0.00 0.00 0.00 70 1007.2
20260831121039 63 293 0.0 2.0 0.00 0.00 0.00 70 1007.2
20260831120539 63 300 0.0 3.0 0.00 0.00 0.00 70 1007.3
20260831120038 63 300 1.0 3.0 0.00 0.00 0.00 70 1007.3
20260831115537 63 301 1.0 2.0 0.00 0.00 0.00 69 1007.3
20260831115037 63 295 0.0 5.0 0.00 0.00 0.00 69 1007.3
20260831114536 63 278 1.0 5.0 0.00 0.00 0.00 69 1007.2
20260831114039 63 274 2.0 3.0 0.00 0.00 0.00 69 1007.3
20260831113536 63 273 1.0 3.0 0.00 0.00 0.00 69 1007.2
20260831113036 63 293 0.0 1.0 0.00 0.00 0.00 69 1007.2
20260831112536 63 330 0.0 1.0 0.00 0.00 0.00 68 1007.1
20260831112035 63 330 0.0 3.0 0.00 0.00 0.00 68 1007.2
20260831111552 63 304 0.0 2.0 0.00 0.00 0.00 68 1007.0
20260831111035 64 304 0.0 2.0 0.00 0.00 0.00 68 1007.0
20260831110534 64 319 0.0 2.0 0.00 0.00 0.00 68 1007.1
20260831110041 64 314 0.0 0.0 0.00 0.00 0.00 67 1007.1
20260831105533 64 313 0.0 3.0 0.00 0.00 0.00 67 1007.2
20260831105034 64 313 1.0 4.0 0.00 0.00 0.00 66 1007.2
20260831104532 64 269 2.0 4.0 0.00 0.00 0.00 66 1007.2
20260831104030 65 239 1.0 3.0 0.00 0.00 0.00 65 1007.2
20260831103529 65 271 1.0 4.0 0.00 0.00 0.00 64 1007.3
20260831103027 65 257 1.0 4.0 0.00 0.00 0.00 64 1007.3
20260831102528 65 276 2.0 4.0 0.00 0.00 0.00 64 1007.3
20260831102026 65 278 2.0 4.0 0.00 0.00 0.00 64 1007.3
20260831101526 65 277 2.0 3.0 0.00 0.00 0.00 63 1007.3
20260831101027 65 280 1.0 3.0 0.00 0.00 0.00 63 1007.3
20260831100525 66 256 1.0 4.0 0.00 0.00 0.00 63 1007.2
20260831100025 66 308 1.0 3.0 0.00 0.00 0.00 63 1007.1
20260831095524 66 285 2.0 4.0 0.00 0.00 0.00 63 1007.1
20260831095025 66 248 2.0 4.0 0.00 0.00 0.00 63 1007.0
20260831094529 66 285 2.0 3.0 0.00 0.00 0.00 63 1007.0
20260831094024 66 280 1.0 4.0 0.00 0.00 0.00 63 1007.0
20260831093527 66 280 1.0 4.0 0.00 0.00 0.00 63 1007.0
20260831093027 66 269 1.0 3.0 0.00 0.00 0.00 63 1007.0
20260831092523 66 308 1.0 4.0 0.00 0.00 0.00 63 1007.0
20260831092024 66 298 2.0 4.0 0.00 0.00 0.00 63 1007.0
20260831091524 66 336 2.0 4.0 0.00 0.00 0.00 63 1007.0
20260831091024 66 268 2.0 4.0 0.00 0.00 0.00 64 1007.0
20260831090523 66 317 2.0 4.0 0.00 0.00 0.00 64 1006.9
20260831090023 66 293 2.0 3.0 0.00 0.00 0.00 64 1006.9
20260831085524 65 306 1.0 3.0 0.00 0.00 0.00 64 1006.9
20260831085027 65 264 2.0 3.0 0.00 0.00 0.00 64 1007.0
20260831084534 65 299 1.0 4.0 0.00 0.00 0.00 64 1007.0
20260831084020 66 308 1.0 4.0 0.00 0.00 0.00 63 1007.0
20260831083519 66 262 2.0 4.0 0.00 0.00 0.00 63 1007.0
20260831083018 66 262 2.0 4.0 0.00 0.00 0.00 62 1007.1
20260831082519 66 304 2.0 4.0 0.00 0.00 0.00 61 1007.2
20260831082016 67 294 2.0 6.0 0.00 0.00 0.00 61 1007.1
20260831081522 67 266 3.0 6.0 0.00 0.00 0.00 60 1007.2
20260831081015 67 293 2.0 4.0 0.00 0.00 0.00 60 1007.2
20260831080515 68 256 2.0 4.0 0.00 0.00 0.00 60 1007.2
20260831080013 68 280 2.0 6.0 0.00 0.00 0.00 59 1007.2
20260831075512 68 258 2.0 6.0 0.00 0.00 0.00 59 1007.3
20260831075017 68 289 2.0 5.0 0.00 0.00 0.00 59 1007.3
20260831074530 68 312 2.0 4.0 0.00 0.00 0.00 59 1007.3
20260831074012 68 314 1.0 6.0 0.00 0.00 0.00 58 1007.3
20260831073511 68 322 2.0 6.0 0.00 0.00 0.00 58 1007.3
20260831073024 68 295 2.0 4.0 0.00 0.00 0.00 58 1007.3
20260831072510 68 272 2.0 4.0 0.00 0.00 0.00 57 1007.3
20260831072011 69 254 2.0 4.0 0.00 0.00 0.00 57 1007.3
20260831071508 69 274 2.0 4.0 0.00 0.00 0.00 56 1007.3
20260831071007 69 262 2.0 5.0 0.00 0.00 0.00 57 1007.3
20260831070506 69 263 2.0 5.0 0.00 0.00 0.00 56 1007.4
20260831070006 69 281 2.0 5.0 0.00 0.00 0.00 56 1007.3
20260831065507 70 265 2.0 4.0 0.00 0.00 0.00 56 1007.3
20260831065005 70 293 2.0 4.0 0.00 0.00 0.00 56 1007.3
20260831064518 70 289 2.0 6.0 0.00 0.00 0.00 56 1007.4
20260831064005 70 309 2.0 6.0 0.00 0.00 0.00 56 1007.3
20260831063505 70 281 2.0 5.0 0.00 0.00 0.00 56 1007.3
20260831063014 70 264 2.0 4.0 0.00 0.00 0.00 55 1007.3
20260831062505 70 270 2.0 4.0 0.00 0.00 0.00 55 1007.4
20260831062005 70 285 1.0 3.0 0.00 0.00 0.00 54 1007.3
20260831061505 70 274 1.0 3.0 0.00 0.00 0.00 54 1007.3
20260831061005 70 291 1.0 3.0 0.00 0.00 0.00 53 1007.3
20260831060505 70 278 1.0 3.0 0.00 0.00 0.00 53 1007.2
20260831060004 70 271 2.0 3.0 0.00 0.00 0.00 52 1007.2
20260831055504 70 268 2.0 3.0 0.00 0.00 0.00 52 1007.2
20260831055004 70 281 1.0 2.0 0.00 0.00 0.00 52 1007.1
20260831054504 70 293 1.0 3.0 0.00 0.00 0.00 51 1007.2
20260831054003 71 275 2.0 6.0 0.00 0.00 0.00 50 1007.2
20260831053503 71 277 3.0 6.0 0.00 0.00 0.00 50 1007.2
20260831053010 71 258 2.0 4.0 0.00 0.00 0.00 50 1007.3
20260831052506 71 241 2.0 4.0 0.00 0.00 0.00 49 1007.3
20260831052004 72 255 1.0 5.0 0.00 0.00 0.00 49 1007.3
20260831051503 72 245 2.0 5.0 0.00 0.00 0.00 48 1007.3
20260831051003 73 226 2.0 4.0 0.00 0.00 0.00 48 1007.3
20260831050503 74 210 1.0 5.0 0.00 0.00 0.00 47 1007.3
20260831050009 75 231 3.0 5.0 0.00 0.00 0.00 46 1007.2
20260831045503 76 254 1.0 4.0 0.00 0.00 0.00 45 1007.1
20260831045002 77 231 2.0 4.0 0.00 0.00 0.00 44 1007.2
20260831044503 77 250 3.0 5.0 0.00 0.00 0.00 43 1007.2
20260831044003 78 270 3.0 5.0 0.00 0.00 0.00 43 1007.2
20260831043501 78 258 2.0 5.0 0.00 0.00 0.00 42 1007.1
20260831043003 78 282 2.0 5.0 0.00 0.00 0.00 42 1007.0
20260831042502 79 304 2.0 5.0 0.00 0.00 0.00 41 1007.0
20260831042002 79 336 2.0 5.0 0.00 0.00 0.00 41 1006.9
20260831041504 79 304 2.0 5.0 0.00 0.00 0.00 40 1006.8
20260831041003 79 283 3.0 7.0 0.00 0.00 0.00 40 1006.8
20260831040502 80 325 1.0 7.0 0.00 0.00 0.00 39 1006.7
20260831040004 80 270 3.0 6.0 0.00 0.00 0.00 39 1006.6
20260831035502 80 339 1.0 5.0 0.00 0.00 0.00 39 1006.6
20260831035002 80 320 2.0 5.0 0.00 0.00 0.00 38 1006.5
20260831034501 81 285 1.0 4.0 0.00 0.00 0.00 38 1006.5
20260831034101 81 318 2.0 4.0 0.00 0.00 0.00 37 1006.4
20260831033600 81 331 2.0 4.0 0.00 0.00 0.00 37 1006.4
20260831033102 82 316 1.0 4.0 0.00 0.00 0.00 36 1006.3
20260831032600 82 322 0.0 4.0 0.00 0.00 0.00 36 1006.2
20260831032103 82 335 2.0 4.0 0.00 0.00 0.00 35 1006.2
20260831031601 82 343 1.0 3.0 0.00 0.00 0.00 35 1006.2
20260831031059 83 328 1.0 3.0 0.00 0.00 0.00 35 1006.2
20260831030559 83 343 1.0 3.0 0.00 0.00 0.00 34 1006.2
20260831030104 83 322 1.0 3.0 0.00 0.00 0.00 33 1006.2
20260831025600 83 304 0.0 3.0 0.00 0.00 0.00 33 1006.1
20260831025102 84 328 2.0 4.0 0.00 0.00 0.00 32 1006.0
20260831024559 84 312 1.0 4.0 0.00 0.00 0.00 32 1006.0
20260831024100 85 331 1.0 3.0 0.00 0.00 0.00 31 1006.1
20260831023559 85 320 1.0 4.0 0.00 0.00 0.00 30 1006.0
20260831023058 86 340 1.0 4.0 0.00 0.00 0.00 30 1006.0
20260831022601 86 333 1.0 6.0 0.00 0.00 0.00 29 1006.0
20260831022059 87 337 1.0 6.0 0.00 0.00 0.00 28 1006.0
20260831021600 87 336 0.0 2.0 0.00 0.00 0.00 27 1006.0
20260831021058 88 10 0.0 4.0 0.00 0.00 0.00 26 1006.0
20260831020558 88 341 1.0 4.0 0.00 0.00 0.00 25 1006.0
20260831020058 88 318 1.0 5.0 0.00 0.00 0.00 25 1006.0
20260831015557 89 326 2.0 8.0 0.00 0.00 0.00 25 1006.0
20260831015057 89 332 2.0 8.0 0.00 0.00 0.00 25 1006.0
20260831014557 89 337 2.0 6.0 0.00 0.00 0.00 25 1006.1
20260831014057 89 293 1.0 8.0 0.00 0.00 0.00 25 1006.0
20260831013556 89 337 3.0 6.0 0.00 0.00 0.00 24 1006.1
20260831013056 90 325 2.0 6.0 0.00 0.00 0.00 25 1006.1
20260831012559 90 330 2.0 6.0 0.00 0.00 0.00 24 1006.1
20260831012055 90 310 3.0 6.0 0.00 0.00 0.00 24 1006.2
20260831011554 91 337 1.0 7.0 0.00 0.00 0.00 24 1006.2
20260831011055 90 286 2.0 7.0 0.00 0.00 0.00 24 1006.2
20260831010555 90 354 3.0 10.0 0.00 0.00 0.00 24 1006.2
20260831010100 90 339 2.0 10.0 0.00 0.00 0.00 23 1006.1
20260831005554 90 304 3.0 9.0 0.00 0.00 0.00 23 1006.2
20260831005054 90 318 3.0 8.0 0.00 0.00 0.00 23 1006.2
20260831004554 91 338 4.0 9.0 0.00 0.00 0.00 23 1006.2
20260831004054 91 303 4.0 9.0 0.00 0.00 0.00 22 1006.3